Regional Weather Roundup
Issued by NWS State College, PA

Home | Current Version | Previous Version | Graphics & Text | Print | Product List | Glossary Off
Versions: 1 2 3 4 5 6 7 8 9 10 11 12 13 14 15 16 17 18 19 20 21 22 23 24 25 26 27 28 29 30 31 32 33 34 35 36 37 38 39 40 41 42 43 44 45 46 47 48 49 50

000
ASUS41 KCTP 290410
RWRCTP

REGIONAL WEATHER ROUNDUP
NATIONAL WEATHER SERVICE STATE COLLEGE PA
1100 PM EST FRI NOV 28 2014

Note: "fair" indicates few or no clouds below 12,000 feet with no
significant weather and/or obstructions to visibility.

* = STATION THAT DOES NOT REPORT PRECIPITATION /E.G. RAIN...SNOW...ETC/
    THUNDER OR FOG.

PAZ002>004-007>009-013>016-020>023-029>032-290500-
WESTERN PENNSYLVANIA

CITY           SKY/WX    TMP DP  RH WIND       PRES   REMARKS
ERIE           LGT SNOW  25  17  72 S9        30.19S
MEADVILLE      LGT SNOW  23  18  81 VRB5      30.15R VSB 3/4
FRANKLIN*      CLOUDY    21  16  79 S8        30.17R WCI  12
NEW CASTLE       N/A     25  18  74 CALM      30.19S
BEAVER COUNTY  NOT AVBL
BUTLER*        MOCLDY    25  18  74 S3        30.18F
PITTSBURGH INT MOCLDY    26  19  74 S6        30.17F
PITTSBURGH     CLOUDY    26  16  65 S8        30.17F
INDIANA*       CLOUDY    19  16  86 CALM      30.22F
LATROBE        CLOUDY    27  19  74 CALM      30.22F
WASHINGTON CO* CLOUDY    27  18  69 S3        30.19F
$$

PAZ004>006-010>012-017>019-024>028-033>037-041-042-045-046-049>053-290500-
CENTRAL PENNSYLVANIA

CITY           SKY/WX    TMP DP  RH WIND       PRES   REMARKS
BRADFORD       CLOUDY    18  11  74 CALM      30.12S
DUBOIS         CLOUDY    20  12  71 S5        30.14F WCI  13
CLEARFIELD     PTCLDY    19  14  81 CALM      30.18F
JOHNSTOWN      MOCLDY    20  13  74 SW9       30.13F WCI   9
ALTOONA        PTCLDY    23  15  71 S6        30.19F
STATE COLLEGE  CLOUDY    22  13  70 CALM      30.21S
WILLIAMSPORT   PTCLDY    21  14  74 CALM      30.25S
SELINSGROVE    PTCLDY    20  17  88 CALM      30.27S
FT INDIANTOWN  PTCLDY    28  13  52 VRB5      30.25F
CAPITAL CITY   PTCLDY    27  16  63 CALM      30.27S
HARRISBURG     MOCLDY    27  17  66 CALM      30.27S
YORK           PTCLDY    20  14  77 CALM      30.26F
$$

PAZ038>040-043-044-047-048-054-055-060>062-067>071-290500-
EASTERN PENNSYLVANIA

CITY           SKY/WX    TMP DP  RH WIND       PRES   REMARKS
SCRANTON       MOCLDY    16   9  74 S6        30.21F WCI   7
MOUNT POCONO   MOCLDY    12   8  84 CALM      30.13F
ALLENTOWN      MOCLDY    21  14  74 N5        30.25F WCI  15
QUAKERTOWN*    MOCLDY    21  18  86 CALM      30.26S
READING        MOCLDY    27  15  61 SW3       30.26R
LANCASTER      PTCLDY    24  15  68 W3        30.27R
COATESVILLE    MOCLDY    27  16  63 W3        30.26R
POTTSTOWN      CLOUDY    23  17  78 CALM      30.28R
BLUE BELL      FAIR      27  23  86 CALM      30.26S
DOYLESTOWN     PTCLDY    23  17  78 CALM      30.26S
WILLOW GROVE   NOT AVBL
NORTH PHILA    CLEAR     27  16  63 E3        30.29S
PHILADELPHIA   MOCLDY    29  17  61 W5        30.29S
$$


USA.gov is the U.S. government's official web portal to all federal, state and local government web resources and services.